Change the Weather History Date:

Sunday, February 23, 2014

  Actual Average Record
Temperature  
Mean Temperature 70 °F -  
Max Temperature 76 °F 71 °F 87 °F (2013)
Min Temperature 65 °F 58 °F 48 °F (1999)
Cooling Degree Days 6    
Growing Degree Days 20 (Base 50)    
Moisture  
Dew Point 68 °F    
Average Humidity 97    
Maximum Humidity 100    
Minimum Humidity 87    
Precipitation  
Precipitation 0.13 in - - ()
Sea Level Pressure  
Sea Level Pressure 30.07 in    
Wind  
Wind Speed 6 mph (West)    
Max Wind Speed 18 mph    
Max Gust Speed 25 mph    
Visibility 6 miles    
Events Fog , Rain , Thunderstorm    
Averages and records for this station are not official NWS values.
T = Trace of Precipitation, MM = Missing Value Source: NWS Daily Summary

Daily Weather History Graph

Daily Weather History Graph

Search for Another Location

Airport or City:

Trip Planner

Search our weather history database for the weather conditions in past years. The results will help you decide how hot, cold, wet, or windy it might be!

Date:

Astronomy

Feb. 23, 2014 Rise Set
Actual Time 6:53 AM EST 6:18 PM EST
Civil Twilight 6:29 AM EST 6:42 PM EST
Nautical Twilight 6:01 AM EST 7:09 PM EST
Astronomical Twilight 5:34 AM EST 7:37 PM EST
Moon 1:35 AM EST (2/23) 12:34 PM EST (2/23)
Length of Visible Light 12h 13m
Length of Day
11h 25m
Last Quarter, 39% of the Moon is Illuminated
Feb 23
Last Quarter
Mar 1
New
Mar 8
First Quarter
Mar 16
Full
Mar 23
Last Quarter

Hourly Weather History & Observations

Time (EST) Temp. Dew Point Humidity Pressure Visibility Wind Dir Wind Speed Gust Speed Precip Events Conditions
12:38 AM 68.0 °F 66.2 °F 94% 30.08 in 10.0 mi West 4.6 mph - N/A   Overcast
12:58 AM 66.9 °F 66.4 °F 98% 30.09 in 10.0 mi West 3.5 mph - N/A   Scattered Clouds
1:58 AM 66.6 °F 66.2 °F 99% 30.08 in 10.0 mi WNW 5.8 mph - N/A   Clear
2:58 AM 65.7 °F 65.3 °F 99% 30.06 in 10.0 mi WNW 4.6 mph - N/A   Partly Cloudy
3:58 AM 65.5 °F 65.3 °F 99% 30.06 in 10.0 mi WNW 5.8 mph - N/A   Scattered Clouds
4:03 AM 66.2 °F 64.4 °F 94% 30.06 in 10.0 mi WNW 5.8 mph - N/A   Mostly Cloudy
4:38 AM 66.2 °F 64.4 °F 94% 30.05 in 10.0 mi SW 3.5 mph - N/A   Overcast
4:48 AM 66.2 °F 64.4 °F 94% 30.05 in 10.0 mi WSW 3.5 mph - N/A   Overcast
4:58 AM 65.5 °F 65.1 °F 99% 30.06 in 10.0 mi WSW 4.6 mph - N/A   Overcast
5:03 AM 66.2 °F 64.4 °F 94% 30.05 in 6.0 mi WSW 4.6 mph - N/A   Overcast
5:08 AM 66.2 °F 66.2 °F 100% 30.06 in 1.5 mi West 4.6 mph - N/A   Overcast
5:13 AM 66.2 °F 66.2 °F 100% 30.06 in 0.5 mi West 4.6 mph - N/A Fog Fog
5:53 AM 66.2 °F 66.2 °F 100% 30.07 in 1.2 mi WNW 8.1 mph - N/A   Overcast
5:58 AM 66.0 °F 66.0 °F 100% 30.09 in 1.8 mi West 6.9 mph - N/A   Overcast
6:23 AM 66.2 °F 66.2 °F 100% 30.07 in 1.0 mi WNW 4.6 mph - N/A   Mist
6:28 AM 66.2 °F 66.2 °F 100% 30.07 in 0.8 mi WNW 3.5 mph - N/A   Mist
6:58 AM 65.7 °F 65.7 °F 100% 30.09 in 0.2 mi West 3.5 mph - N/A Fog Fog
7:53 AM 66.2 °F 66.2 °F 100% 30.08 in 0.5 mi West 2.3 mph - N/A Fog Fog
7:58 AM 65.7 °F 65.7 °F 100% 30.09 in 1.0 mi West 2.3 mph - N/A   Mist
8:03 AM 66.2 °F 66.2 °F 100% 30.08 in 1.2 mi WNW 2.3 mph - N/A   Overcast
8:08 AM 66.2 °F 66.2 °F 100% 30.08 in 0.8 mi NW 1.2 mph - N/A   Mist
8:33 AM 66.2 °F 66.2 °F 100% 30.09 in 0.5 mi SSW 2.3 mph - N/A Fog Fog
8:38 AM 66.2 °F 66.2 °F 100% 30.09 in 0.5 mi WSW 2.3 mph - N/A Fog Fog
8:53 AM 66.2 °F 66.2 °F 100% 30.09 in 0.5 mi Variable 2.3 mph - N/A Fog Fog
8:58 AM 65.8 °F 65.8 °F 100% 30.11 in 0.5 mi SSW 2.3 mph - N/A Fog Fog
9:13 AM 66.2 °F 66.2 °F 100% 30.10 in 0.5 mi SSW 5.8 mph - N/A Fog Fog
9:38 AM 68.0 °F 68.0 °F 100% 30.10 in 0.5 mi South 5.8 mph - N/A Fog Fog
9:58 AM 68.0 °F 68.0 °F 100% 30.11 in 1.0 mi SSW 5.8 mph - N/A   Mist
10:03 AM 68.0 °F 68.0 °F 100% 30.09 in 1.0 mi SSW 5.8 mph - N/A   Mist
10:08 AM 68.0 °F 68.0 °F 100% 30.10 in 0.8 mi SSW 5.8 mph - N/A   Mist
10:18 AM 68.0 °F 68.0 °F 100% 30.10 in 1.0 mi SSW 4.6 mph - N/A   Mist
10:23 AM 68.0 °F 68.0 °F 100% 30.10 in 1.2 mi SSW 5.8 mph - N/A   Overcast
10:28 AM 68.0 °F 68.0 °F 100% 30.09 in 2.0 mi SSW 5.8 mph - N/A   Overcast
10:33 AM 68.0 °F 68.0 °F 100% 30.09 in 4.0 mi SSW 5.8 mph - N/A   Mostly Cloudy
10:53 AM 69.8 °F 69.8 °F 100% 30.10 in 10.0 mi SW 3.5 mph - N/A   Mostly Cloudy
10:58 AM 69.3 °F 69.3 °F 100% 30.11 in 10.0 mi West 1.2 mph - N/A   Scattered Clouds
11:03 AM 68.0 °F 68.0 °F 100% 30.09 in 10.0 mi Variable 2.3 mph - N/A   Mostly Cloudy
11:18 AM 69.8 °F 69.8 °F 100% 30.09 in 10.0 mi Variable 1.2 mph - N/A   Scattered Clouds
11:23 AM 69.8 °F 69.8 °F 100% 30.09 in 10.0 mi Variable 2.3 mph - N/A   Mostly Cloudy
11:38 AM 69.8 °F 69.8 °F 100% 30.09 in 10.0 mi ENE 4.6 mph - N/A   Mostly Cloudy
11:48 AM 69.8 °F 69.8 °F 100% 30.09 in 10.0 mi ENE 3.5 mph - N/A   Scattered Clouds
11:58 AM 70.5 °F 70.0 °F 98% 30.11 in 10.0 mi ENE 5.8 mph - N/A   Mostly Cloudy
12:08 PM 69.8 °F 69.8 °F 100% 30.09 in 10.0 mi NE 4.6 mph - N/A   Scattered Clouds
12:58 PM 71.1 °F 70.2 °F 97% 30.08 in 10.0 mi East 5.8 mph - N/A   Clear
1:58 PM 74.1 °F 71.6 °F 92% 30.04 in 10.0 mi ESE 8.1 mph - N/A   Clear
2:58 PM 75.0 °F 71.8 °F 90% 30.01 in 10.0 mi East 9.2 mph - N/A   Clear
3:58 PM 76.5 °F 72.5 °F 87% 30.01 in 10.0 mi ESE 9.2 mph - N/A   Clear
4:58 PM 76.1 °F 72.7 °F 89% 30.01 in 7.0 mi SSE 12.7 mph - N/A   Clear
5:58 PM 74.8 °F 72.3 °F 92% 30.01 in 10.0 mi SSE 10.4 mph - N/A   Clear
6:50 PM 73.4 °F 69.8 °F 88% 30.02 in 10.0 mi North 18.4 mph 25.3 mph N/A Rain Light Rain
6:55 PM 71.6 °F 68.0 °F 88% 30.03 in 10.0 mi North 18.4 mph 25.3 mph N/A Rain Light Rain
6:58 PM 71.6 °F 68.0 °F 88% 30.04 in 7.0 mi North 13.8 mph 25.3 mph 0.01 in Rain Rain
7:07 PM 69.8 °F 66.2 °F 88% 30.03 in 5.0 mi North 18.4 mph - N/A Rain , Thunderstorm Heavy Thunderstorms and Rain
7:17 PM 69.8 °F 66.2 °F 88% 30.02 in 10.0 mi North 13.8 mph - N/A Rain , Thunderstorm Light Thunderstorms and Rain
7:24 PM 69.8 °F 66.2 °F 88% 30.03 in 10.0 mi North 15.0 mph - N/A Rain Light Rain
7:39 PM 69.8 °F 68.0 °F 94% 30.03 in 10.0 mi North 13.8 mph 25.3 mph N/A Rain Light Rain
7:46 PM 69.8 °F 68.0 °F 94% 30.04 in 10.0 mi North 15.0 mph - N/A   Scattered Clouds
7:58 PM 68.9 °F 67.5 °F 95% 30.06 in 10.0 mi North 13.8 mph - 0.12 in   Partly Cloudy
8:58 PM 68.0 °F 67.3 °F 98% 30.06 in 10.0 mi NNE 9.2 mph - N/A   Clear
9:58 PM 67.8 °F 66.9 °F 97% 30.06 in 10.0 mi NNE 5.8 mph - N/A   Clear
10:58 PM 68.0 °F 67.1 °F 97% 30.06 in 10.0 mi North 6.9 mph - N/A   Clear
11:58 PM 67.8 °F 67.3 °F 98% 30.06 in 10.0 mi NNW 8.1 mph - N/A   Partly Cloudy